| time (UTC) | temp F | wind direction | speed knots | gust knots | rain 1hr in | rain 24hr in | rain mn in | humidity % | barometer mb |
| 20260506173608 | 65 | 141 | 2.6 | 2.6 | 0.00 | 0.07 | 0.07 | 91 | 1012.4 |
| 20260506173104 | 65 | 137 | 1.7 | 2.6 | 0.00 | 0.07 | 0.07 | 91 | 1012.5 |
| 20260506172602 | 64 | 142 | 2.6 | 2.6 | 0.00 | 0.07 | 0.07 | 92 | 1012.3 |
| 20260506172057 | 64 | 146 | 2.6 | 3.5 | 0.00 | 0.07 | 0.07 | 92 | 1012.3 |
| 20260506171555 | 64 | 105 | 0.9 | 1.7 | 0.00 | 0.07 | 0.07 | 93 | 1012.4 |
| 20260506171053 | 64 | 108 | 0.9 | 2.6 | 0.00 | 0.07 | 0.07 | 93 | 1012.3 |
| 20260506170550 | 63 | 119 | 0.9 | 1.7 | 0.00 | 0.07 | 0.07 | 93 | 1012.4 |
| 20260506170047 | 63 | 137 | 1.7 | 1.7 | 0.02 | 0.07 | 0.07 | 94 | 1012.6 |
| 20260506165546 | 63 | 137 | 1.7 | 2.6 | 0.02 | 0.07 | 0.07 | 94 | 1012.9 |
| 20260506165041 | 64 | 138 | 0.9 | 3.5 | 0.00 | 0.07 | 0.07 | 94 | 1013.2 |
| 20260506164539 | 64 | 112 | 1.7 | 1.7 | 0.00 | 0.07 | 0.07 | 93 | 1012.8 |
| 20260506164036 | 64 | 126 | 2.6 | 2.6 | 0.00 | 0.07 | 0.07 | 93 | 1013.3 |
| 20260506163532 | 64 | 162 | 1.7 | 2.6 | 0.00 | 0.07 | 0.07 | 93 | 1013.4 |
| 20260506163027 | 64 | 183 | 1.7 | 3.5 | 0.00 | 0.07 | 0.07 | 93 | 1013.2 |
| 20260506162524 | 64 | 189 | 1.7 | 3.5 | 0.02 | 0.07 | 0.07 | 94 | 1012.9 |
| 20260506162021 | 64 | 138 | 1.7 | 2.6 | 0.02 | 0.07 | 0.07 | 94 | 1013.2 |
| 20260506161519 | 63 | 158 | 1.7 | 2.6 | 0.00 | 0.07 | 0.07 | 94 | 1012.9 |
| 20260506161015 | 63 | 150 | 1.7 | 2.6 | 0.00 | 0.07 | 0.07 | 94 | 1013.0 |
| 20260506160513 | 63 | 150 | 1.7 | 2.6 | 0.02 | 0.07 | 0.07 | 93 | 1013.0 |
| 20260506160010 | 63 | 119 | 0.0 | 1.7 | 0.02 | 0.07 | 0.07 | 93 | 1012.8 |
| 20260506155508 | 63 | 155 | 0.9 | 1.7 | 0.00 | 0.06 | 0.06 | 93 | 1013.1 |
| 20260506153640 | 63 | 115 | 0.9 | 1.7 | 0.00 | 0.06 | 0.06 | 92 | 1013.1 |
| 20260506153137 | 63 | 154 | 1.7 | 1.7 | 0.00 | 0.06 | 0.06 | 93 | 1012.9 |
| 20260506152634 | 63 | 103 | 0.9 | 1.7 | 0.00 | 0.06 | 0.06 | 93 | 1013.4 |
| 20260506152132 | 63 | 170 | 0.9 | 1.7 | 0.00 | 0.06 | 0.06 | 93 | 1013.4 |
| 20260506151630 | 62 | 123 | 1.7 | 1.7 | 0.00 | 0.06 | 0.06 | 93 | 1013.4 |
| 20260506151127 | 62 | 137 | 1.7 | 1.7 | 0.00 | 0.06 | 0.06 | 94 | 1013.5 |
| 20260506150624 | 62 | 147 | 1.7 | 1.7 | 0.00 | 0.06 | 0.06 | 94 | 1013.5 |
| 20260506150120 | 62 | 154 | 0.9 | 1.7 | 0.00 | 0.06 | 0.06 | 94 | 1013.7 |
| 20260506145618 | 62 | 148 | 1.7 | 1.7 | 0.00 | 0.06 | 0.06 | 95 | 1013.6 |
| 20260506145114 | 62 | 151 | 1.7 | 1.7 | 0.00 | 0.06 | 0.06 | 95 | 1013.5 |
| 20260506144611 | 62 | 145 | 0.9 | 1.7 | 0.02 | 0.06 | 0.06 | 95 | 1013.5 |
| 20260506144108 | 61 | 135 | 0.9 | 1.7 | 0.02 | 0.06 | 0.06 | 95 | 1013.6 |
| 20260506143606 | 61 | 137 | 1.7 | 1.7 | 0.02 | 0.06 | 0.06 | 94 | 1013.6 |
| 20260506143104 | 61 | 145 | 1.7 | 1.7 | 0.05 | 0.06 | 0.06 | 93 | 1013.7 |
| 20260506142602 | 61 | 129 | 0.9 | 1.7 | 0.09 | 0.06 | 0.06 | 93 | 1013.6 |
| 20260506142100 | 62 | 161 | 0.9 | 2.6 | 0.12 | 0.05 | 0.05 | 92 | 1013.8 |
| 20260506141557 | 62 | 139 | 1.7 | 1.7 | 0.17 | 0.04 | 0.04 | 91 | 1013.8 |
| 20260506141055 | 62 | 157 | 1.7 | 1.7 | 0.09 | 0.02 | 0.02 | 89 | 1013.8 |
| 20260506140552 | 63 | 151 | 0.9 | 1.7 | 0.02 | 0.01 | 0.01 | 88 | 1013.9 |
| 20260506140050 | 63 | 128 | 1.7 | 1.7 | 0.02 | 0.01 | 0.01 | 87 | 1014.0 |
| 20260506135546 | 63 | 91 | 1.7 | 1.7 | 0.02 | 0.01 | 0.01 | 85 | 1013.8 |
| 20260506135042 | 64 | 138 | 1.7 | 1.7 | 0.02 | 0.00 | 0.00 | 83 | 1013.9 |
| 20260506134539 | 64 | 119 | 0.9 | 1.7 | 0.02 | 0.00 | 0.00 | 79 | 1014.0 |
| 20260506134035 | 65 | 119 | 1.7 | 1.7 | 0.00 | 0.00 | 0.00 | 78 | 1013.7 |
| 20260506133532 | 65 | 185 | 0.0 | 2.6 | 0.00 | 0.00 | 0.00 | 75 | 1013.7 |
| 20260506133029 | 65 | 136 | 1.7 | 1.7 | 0.00 | 0.00 | 0.00 | 74 | 1013.7 |
| 20260506132526 | 65 | 146 | 0.0 | 1.7 | 0.00 | 0.00 | 0.00 | 75 | 1013.6 |
| 20260506132024 | 65 | 119 | 1.7 | 1.7 | 0.00 | 0.00 | 0.00 | 73 | 1013.6 |
| 20260506131521 | 65 | 159 | 1.7 | 1.7 | 0.00 | 0.00 | 0.00 | 73 | 1013.4 |
| 20260506131017 | 66 | 107 | 0.0 | 2.6 | 0.00 | 0.00 | 0.00 | 73 | 1013.6 |
| 20260506130514 | 65 | 100 | 1.7 | 2.6 | 0.00 | 0.00 | 0.00 | 73 | 1013.6 |
| 20260506130012 | 65 | 168 | 0.0 | 2.6 | 0.00 | 0.00 | 0.00 | 72 | 1013.7 |
| 20260506125510 | 65 | 94 | 1.7 | 1.7 | 0.00 | 0.00 | 0.00 | 73 | 1013.3 |
| 20260506125007 | 65 | 112 | 1.7 | 1.7 | 0.00 | 0.00 | 0.00 | 73 | 1013.8 |
| 20260506124505 | 65 | 95 | 1.7 | 2.6 | 0.00 | 0.00 | 0.00 | 74 | 1013.5 |
| 20260506124003 | 65 | 114 | 0.0 | 1.7 | 0.00 | 0.00 | 0.00 | 74 | 1013.7 |
| 20260506123500 | 64 | 126 | 0.9 | 1.7 | 0.00 | 0.00 | 0.00 | 74 | 1013.4 |
| 20260506122958 | 64 | 138 | 1.7 | 2.6 | 0.00 | 0.00 | 0.00 | 75 | 1013.6 |
| 20260506122454 | 64 | 124 | 0.9 | 1.7 | 0.00 | 0.00 | 0.00 | 75 | 1013.3 |
| 20260506121953 | 64 | 132 | 0.9 | 3.5 | 0.00 | 0.00 | 0.00 | 75 | 1013.2 |
| 20260506121450 | 64 | 149 | 1.7 | 2.6 | 0.00 | 0.00 | 0.00 | 74 | 1013.5 |
| 20260506120946 | 65 | 91 | 1.7 | 2.6 | 0.00 | 0.00 | 0.00 | 74 | 1013.4 |
| 20260506120444 | 65 | 105 | 0.9 | 2.6 | 0.00 | 0.00 | 0.00 | 74 | 1013.3 |
| 20260506115941 | 65 | 160 | 1.7 | 1.7 | 0.00 | 0.00 | 0.00 | 74 | 1013.4 |
| 20260506115439 | 65 | 152 | 0.9 | 2.6 | 0.00 | 0.00 | 0.00 | 73 | 1013.5 |
| 20260506114937 | 65 | 132 | 0.9 | 2.6 | 0.00 | 0.00 | 0.00 | 73 | 1013.3 |
| 20260506114434 | 65 | 134 | 0.0 | 1.7 | 0.00 | 0.00 | 0.00 | 73 | 1013.5 |
| 20260506113933 | 65 | 126 | 1.7 | 1.7 | 0.00 | 0.00 | 0.00 | 73 | 1013.2 |
| 20260506113430 | 65 | 118 | 0.9 | 1.7 | 0.00 | 0.00 | 0.00 | 73 | 1013.2 |
| 20260506112926 | 64 | 14 | 0.9 | 2.6 | 0.00 | 0.00 | 0.00 | 73 | 1013.5 |
| 20260506112424 | 64 | 113 | 1.7 | 1.7 | 0.00 | 0.00 | 0.00 | 74 | 1013.3 |
| 20260506111921 | 64 | 140 | 1.7 | 2.6 | 0.00 | 0.00 | 0.00 | 73 | 1013.4 |
| 20260506111419 | 64 | 149 | 1.7 | 2.6 | 0.00 | 0.00 | 0.00 | 74 | 1013.5 |
| 20260506110916 | 64 | 146 | 0.9 | 2.6 | 0.00 | 0.00 | 0.00 | 73 | 1013.2 |
| 20260506110414 | 64 | 142 | 0.9 | 1.7 | 0.00 | 0.00 | 0.00 | 73 | 1013.2 |
| 20260506105910 | 64 | 146 | 1.7 | 2.6 | 0.00 | 0.00 | 0.00 | 73 | 1013.2 |
| 20260506105406 | 64 | 138 | 0.0 | 1.7 | 0.00 | 0.00 | 0.00 | 73 | 1013.2 |
| 20260506104904 | 64 | 115 | 0.9 | 1.7 | 0.00 | 0.00 | 0.00 | 73 | 1013.3 |
| 20260506104402 | 64 | 141 | 1.7 | 1.7 | 0.00 | 0.00 | 0.00 | 73 | 1013.2 |
| 20260506103900 | 64 | 141 | 0.9 | 2.6 | 0.00 | 0.00 | 0.00 | 72 | 1013.3 |
| 20260506103357 | 64 | 62 | 0.0 | 2.6 | 0.00 | 0.00 | 0.00 | 72 | 1013.5 |
| 20260506102854 | 64 | 187 | 0.9 | 1.7 | 0.00 | 0.00 | 0.00 | 73 | 1013.4 |
| 20260506102352 | 64 | 129 | 0.9 | 1.7 | 0.00 | 0.00 | 0.00 | 74 | 1013.6 |
| 20260506101848 | 64 | 83 | 0.9 | 2.6 | 0.00 | 0.00 | 0.00 | 73 | 1013.7 |
| 20260506101345 | 64 | 91 | 1.7 | 3.5 | 0.00 | 0.00 | 0.00 | 74 | 1013.6 |
| 20260506100843 | 64 | 152 | 1.7 | 1.7 | 0.00 | 0.00 | 0.00 | 73 | 1013.4 |
| 20260506100341 | 64 | 145 | 0.9 | 1.7 | 0.00 | 0.00 | 0.00 | 73 | 1013.4 |
| 20260506095839 | 64 | 243 | 2.6 | 2.6 | 0.00 | 0.00 | 0.00 | 73 | 1013.4 |
| 20260506095336 | 64 | 68 | 1.7 | 2.6 | 0.00 | 0.00 | 0.00 | 73 | 1013.5 |
| 20260506094832 | 64 | 94 | 1.7 | 1.7 | 0.00 | 0.00 | 0.00 | 74 | 1013.2 |
| 20260506094331 | 64 | 119 | 1.7 | 1.7 | 0.00 | 0.00 | 0.00 | 74 | 1013.1 |
| 20260506093829 | 64 | 134 | 0.9 | 2.6 | 0.00 | 0.00 | 0.00 | 74 | 1013.1 |
| 20260506093326 | 64 | 146 | 0.9 | 1.7 | 0.00 | 0.00 | 0.00 | 73 | 1013.3 |
| 20260506092824 | 64 | 124 | 1.7 | 2.6 | 0.00 | 0.00 | 0.00 | 73 | 1013.1 |
| 20260506092321 | 64 | 115 | 1.7 | 1.7 | 0.00 | 0.00 | 0.00 | 74 | 1013.0 |
| 20260506091818 | 64 | 140 | 1.7 | 1.7 | 0.00 | 0.00 | 0.00 | 74 | 1012.8 |
| 20260506091316 | 64 | 110 | 1.7 | 1.7 | 0.00 | 0.00 | 0.00 | 74 | 1013.2 |
| 20260506090813 | 64 | 53 | 1.7 | 1.7 | 0.00 | 0.00 | 0.00 | 73 | 1013.3 |
| 20260506090310 | 64 | 147 | 0.0 | 2.6 | 0.00 | 0.00 | 0.00 | 74 | 1013.1 |
| 20260506085807 | 64 | 127 | 0.9 | 1.7 | 0.00 | 0.00 | 0.00 | 74 | 1013.2 |
| 20260506085305 | 64 | 148 | 1.7 | 1.7 | 0.00 | 0.00 | 0.00 | 74 | 1013.4 |
| 20260506084800 | 64 | 154 | 1.7 | 2.6 | 0.00 | 0.00 | 0.00 | 74 | 1013.1 |
| 20260506084256 | 64 | 132 | 1.7 | 1.7 | 0.00 | 0.00 | 0.00 | 74 | 1013.3 |
| 20260506083753 | 64 | 118 | 0.9 | 1.7 | 0.00 | 0.00 | 0.00 | 74 | 1013.4 |
| 20260506083251 | 64 | 180 | 0.9 | 2.6 | 0.00 | 0.00 | 0.00 | 74 | 1013.6 |
| 20260506082748 | 64 | 106 | 1.7 | 1.7 | 0.00 | 0.00 | 0.00 | 73 | 1013.7 |
| 20260506082243 | 64 | 114 | 1.7 | 2.6 | 0.00 | 0.00 | 0.00 | 73 | 1013.6 |
| 20260506081741 | 64 | 129 | 1.7 | 1.7 | 0.00 | 0.00 | 0.00 | 73 | 1013.6 |
| 20260506081239 | 64 | 123 | 1.7 | 2.6 | 0.00 | 0.00 | 0.00 | 73 | 1013.6 |
| 20260506080737 | 64 | 128 | 0.9 | 1.7 | 0.00 | 0.00 | 0.00 | 73 | 1013.5 |
| 20260506080233 | 64 | 143 | 1.7 | 2.6 | 0.00 | 0.00 | 0.00 | 73 | 1013.5 |
| 20260506073217 | 65 | 108 | 0.9 | 1.7 | 0.00 | 0.00 | 0.00 | 71 | 1013.7 |
| 20260506072714 | 65 | 167 | 1.7 | 1.7 | 0.00 | 0.00 | 0.00 | 70 | 1013.6 |
| 20260506072211 | 65 | 185 | 0.9 | 2.6 | 0.00 | 0.00 | 0.00 | 70 | 1013.6 |
| 20260506071708 | 65 | 156 | 0.0 | 1.7 | 0.00 | 0.00 | 0.00 | 69 | 1013.7 |
| 20260506071206 | 65 | 111 | 0.9 | 1.7 | 0.00 | 0.00 | 0.00 | 69 | 1013.6 |
| 20260506070703 | 65 | 108 | 0.9 | 1.7 | 0.00 | 0.00 | 0.00 | 69 | 1013.7 |
| 20260506070200 | 66 | 125 | 0.9 | 1.7 | 0.00 | 0.00 | 0.00 | 69 | 1013.6 |
| 20260506062137 | 67 | 105 | 0.9 | 1.7 | 0.00 | 0.00 | 0.00 | 67 | 1013.9 |
| 20260506061633 | 67 | 131 | 0.9 | 2.6 | 0.00 | 0.00 | 0.00 | 67 | 1013.9 |
| 20260506061131 | 67 | 75 | 2.6 | 2.6 | 0.00 | 0.00 | 0.00 | 67 | 1013.9 |
| 20260506060629 | 67 | 116 | 1.7 | 1.7 | 0.00 | 0.00 | 0.00 | 66 | 1013.9 |
| 20260506060126 | 67 | 133 | 0.0 | 2.6 | 0.00 | 0.00 | 0.00 | 66 | 1013.8 |
| 20260506051058 | 68 | 67 | 0.0 | 2.6 | 0.00 | 0.00 | 0.00 | 63 | 1014.0 |
| 20260506050556 | 68 | 79 | 1.7 | 3.5 | 0.00 | 0.00 | 0.00 | 63 | 1014.3 |
| 20260506045046 | 69 | 60 | 0.9 | 1.7 | 0.00 | 0.00 | 0.00 | 62 | 1014.3 |
| 20260506044544 | 69 | 105 | 1.7 | 2.6 | 0.00 | 0.00 | 0.00 | 61 | 1014.4 |
| 20260506044040 | 69 | 81 | 1.7 | 2.6 | 0.00 | 0.00 | 0.00 | 60 | 1014.4 |
| 20260506043537 | 69 | 88 | 1.7 | 2.6 | 0.00 | 0.00 | 0.00 | 60 | 1014.5 |
| 20260506043036 | 69 | 78 | 2.6 | 2.6 | 0.00 | 0.00 | 0.00 | 59 | 1014.6 |
| 20260506042535 | 69 | 108 | 0.9 | 2.6 | 0.00 | 0.00 | 0.00 | 59 | 1014.7 |
| 20260506042032 | 70 | 94 | 1.7 | 1.7 | 0.00 | 0.00 | 0.00 | 58 | 1014.2 |
| 20260506041531 | 70 | 229 | 0.0 | 2.6 | 0.00 | 0.00 | 0.00 | 58 | 1014.6 |
| 20260506041027 | 70 | 87 | 1.7 | 1.7 | 0.00 | 0.00 | 0.00 | 58 | 1014.2 |
| 20260506040525 | 70 | 139 | 1.7 | 2.6 | 0.00 | 0.00 | 0.00 | 57 | 1014.4 |
| 20260506040021 | 70 | 66 | 1.7 | 2.6 | 0.00 | 0.00 | 0.00 | 57 | 1014.3 |
| 20260506035518 | 70 | 140 | 0.0 | 2.6 | 0.00 | 0.00 | 0.00 | 57 | 1014.2 |
| 20260506035014 | 70 | 125 | 1.7 | 2.6 | 0.00 | 0.00 | 0.00 | 58 | 1014.5 |
| 20260506034512 | 70 | 69 | 0.0 | 1.7 | 0.00 | 0.00 | 0.00 | 57 | 1014.4 |
| 20260506034009 | 70 | 158 | 1.7 | 2.6 | 0.00 | 0.00 | 0.00 | 56 | 1014.3 |
| 20260506033506 | 71 | 128 | 0.9 | 2.6 | 0.00 | 0.00 | 0.00 | 56 | 1014.3 |
| 20260506033004 | 71 | 132 | 1.7 | 1.7 | 0.00 | 0.00 | 0.00 | 56 | 1014.3 |
| 20260506032501 | 71 | 141 | 0.9 | 1.7 | 0.00 | 0.00 | 0.00 | 56 | 1014.4 |
| 20260506031956 | 71 | 109 | 0.9 | 1.7 | 0.00 | 0.00 | 0.00 | 55 | 1014.4 |
| 20260506031455 | 71 | 59 | 0.9 | 1.7 | 0.00 | 0.00 | 0.00 | 54 | 1014.4 |
| 20260506030952 | 71 | 71 | 0.0 | 1.7 | 0.00 | 0.00 | 0.00 | 54 | 1014.3 |
| 20260506030450 | 71 | 78 | 1.7 | 1.7 | 0.00 | 0.00 | 0.00 | 54 | 1014.2 |
| 20260506025946 | 71 | 121 | 1.7 | 1.7 | 0.00 | 0.00 | 0.00 | 54 | 1014.0 |
| 20260506025443 | 71 | 68 | 0.9 | 1.7 | 0.00 | 0.00 | 0.00 | 53 | 1014.2 |
| 20260506024940 | 71 | 65 | 0.9 | 2.6 | 0.00 | 0.00 | 0.00 | 53 | 1014.0 |
| 20260506024437 | 71 | 151 | 0.9 | 1.7 | 0.00 | 0.00 | 0.00 | 54 | 1014.1 |
| 20260506023932 | 71 | 130 | 0.0 | 2.6 | 0.00 | 0.00 | 0.00 | 54 | 1014.1 |
| 20260506023430 | 72 | 135 | 1.7 | 1.7 | 0.00 | 0.00 | 0.00 | 53 | 1014.2 |
| 20260506022926 | 72 | 176 | 0.0 | 1.7 | 0.00 | 0.00 | 0.00 | 53 | 1014.4 |
| 20260506022424 | 71 | 168 | 0.9 | 1.7 | 0.00 | 0.00 | 0.00 | 53 | 1014.4 |
| 20260506021922 | 72 | 100 | 0.9 | 2.6 | 0.00 | 0.00 | 0.00 | 52 | 1014.2 |
| 20260506021419 | 72 | 151 | 0.9 | 1.7 | 0.00 | 0.00 | 0.00 | 52 | 1014.3 |
| 20260506020916 | 72 | 119 | 0.9 | 1.7 | 0.00 | 0.00 | 0.00 | 52 | 1014.2 |
| 20260506020414 | 72 | 132 | 0.9 | 1.7 | 0.00 | 0.00 | 0.00 | 51 | 1014.4 |
| 20260506015910 | 72 | 127 | 0.9 | 1.7 | 0.00 | 0.00 | 0.00 | 51 | 1014.2 |
| 20260506015408 | 72 | 124 | 0.0 | 1.7 | 0.00 | 0.00 | 0.00 | 52 | 1014.0 |
| 20260506014904 | 72 | 148 | 0.9 | 1.7 | 0.00 | 0.00 | 0.00 | 52 | 1014.2 |
| 20260506014401 | 72 | 125 | 0.9 | 1.7 | 0.00 | 0.00 | 0.00 | 51 | 1014.1 |
| 20260506013858 | 73 | 149 | 0.0 | 2.6 | 0.00 | 0.00 | 0.00 | 51 | 1014.2 |
| 20260506013356 | 73 | 141 | 2.6 | 2.6 | 0.00 | 0.00 | 0.00 | 50 | 1013.9 |
| 20260506012852 | 73 | 194 | 0.0 | 1.7 | 0.00 | 0.00 | 0.00 | 50 | 1014.0 |
| 20260506012349 | 73 | 170 | 1.7 | 1.7 | 0.00 | 0.00 | 0.00 | 50 | 1014.0 |
| 20260506011846 | 73 | 128 | 1.7 | 2.6 | 0.00 | 0.00 | 0.00 | 49 | 1013.8 |
| 20260506011343 | 73 | 80 | 0.0 | 1.7 | 0.00 | 0.00 | 0.00 | 49 | 1013.9 |
| 20260506010840 | 73 | 161 | 1.7 | 1.7 | 0.00 | 0.00 | 0.00 | 48 | 1013.7 |
| 20260506010338 | 73 | 90 | 0.9 | 1.7 | 0.00 | 0.00 | 0.00 | 49 | 1013.6 |
| 20260506005835 | 74 | 172 | 1.7 | 1.7 | 0.00 | 0.00 | 0.00 | 48 | 1013.7 |
| 20260506005331 | 74 | 95 | 0.9 | 1.7 | 0.00 | 0.00 | 0.00 | 47 | 1013.5 |
| 20260506004827 | 74 | 163 | 1.7 | 1.7 | 0.00 | 0.00 | 0.00 | 48 | 1013.7 |
| 20260506004325 | 74 | 132 | 0.9 | 1.7 | 0.00 | 0.00 | 0.00 | 47 | 1013.4 |
| 20260506003821 | 74 | 96 | 0.0 | 1.7 | 0.00 | 0.00 | 0.00 | 46 | 1013.5 |
| 20260506003318 | 75 | 117 | 1.7 | 1.7 | 0.00 | 0.00 | 0.00 | 46 | 1013.5 |
| 20260506002814 | 75 | 131 | 0.9 | 1.7 | 0.00 | 0.00 | 0.00 | 46 | 1013.4 |
| 20260506002311 | 75 | 158 | 1.7 | 1.7 | 0.00 | 0.00 | 0.00 | 46 | 1013.3 |
| 20260506001806 | 75 | 158 | 0.0 | 1.7 | 0.00 | 0.00 | 0.00 | 45 | 1013.5 |
| 20260506001304 | 76 | 175 | 0.0 | 2.6 | 0.00 | 0.00 | 0.00 | 45 | 1013.1 |
| 20260506000801 | 76 | 94 | 0.9 | 1.7 | 0.00 | 0.00 | 0.00 | 44 | 1013.1 |
| 20260506000258 | 76 | 166 | 1.7 | 1.7 | 0.00 | 0.00 | 0.00 | 43 | 1013.1 |
| 20260505235755 | 76 | 213 | 0.0 | 1.7 | 0.00 | 0.00 | 0.00 | 42 | 1013.2 |
| 20260505235253 | 77 | 11 | 0.0 | 1.7 | 0.00 | 0.00 | 0.00 | 42 | 1013.0 |
| 20260505234749 | 77 | 110 | 0.9 | 1.7 | 0.00 | 0.00 | 0.00 | 42 | 1013.0 |
| 20260505234247 | 77 | 192 | 0.9 | 2.6 | 0.00 | 0.00 | 0.00 | 42 | 1012.9 |
| 20260505233743 | 77 | 141 | 0.0 | 2.6 | 0.00 | 0.00 | 0.00 | 41 | 1013.1 |
| 20260505233241 | 77 | 166 | 0.0 | 2.6 | 0.00 | 0.00 | 0.00 | 41 | 1013.2 |
| 20260505232738 | 77 | 184 | 0.0 | 1.7 | 0.00 | 0.00 | 0.00 | 40 | 1013.0 |
| 20260505232236 | 77 | 204 | 0.0 | 3.5 | 0.00 | 0.00 | 0.00 | 41 | 1013.2 |
| 20260505231732 | 78 | 144 | 0.9 | 1.7 | 0.00 | 0.00 | 0.00 | 40 | 1013.1 |
| 20260505231231 | 77 | 55 | 0.9 | 2.6 | 0.00 | 0.00 | 0.00 | 38 | 1013.3 |
| 20260505230729 | 77 | 153 | 0.0 | 1.7 | 0.00 | 0.00 | 0.00 | 39 | 1013.0 |
| 20260505230225 | 78 | 179 | 1.7 | 2.6 | 0.00 | 0.00 | 0.00 | 39 | 1013.1 |
| 20260505225722 | 78 | 183 | 1.7 | 1.7 | 0.00 | 0.00 | 0.00 | 37 | 1013.2 |
| 20260505225219 | 79 | 123 | 0.9 | 1.7 | 0.00 | 0.00 | 0.00 | 36 | 1013.2 |
| 20260505224714 | 79 | 249 | 0.0 | 2.6 | 0.00 | 0.00 | 0.00 | 36 | 1013.3 |
| 20260505224212 | 79 | 140 | 1.7 | 2.6 | 0.00 | 0.00 | 0.00 | 35 | 1013.2 |
| 20260505223710 | 79 | 154 | 1.7 | 1.7 | 0.00 | 0.00 | 0.00 | 34 | 1013.3 |
| 20260505223205 | 80 | 247 | 1.7 | 4.3 | 0.00 | 0.00 | 0.00 | 34 | 1013.1 |
| 20260505222701 | 80 | 160 | 2.6 | 2.6 | 0.00 | 0.00 | 0.00 | 33 | 1013.4 |
| 20260505222158 | 81 | 239 | 2.6 | 4.3 | 0.00 | 0.00 | 0.00 | 33 | 1013.2 |
| 20260505221655 | 81 | 250 | 0.0 | 4.3 | 0.00 | 0.00 | 0.00 | 33 | 1013.5 |
| 20260505221152 | 81 | 172 | 0.0 | 1.7 | 0.00 | 0.00 | 0.00 | 32 | 1013.3 |
| 20260505220649 | 81 | 220 | 3.5 | 3.5 | 0.00 | 0.00 | 0.00 | 32 | 1013.1 |
| 20260505220147 | 81 | 197 | 2.6 | 3.5 | 0.00 | 0.00 | 0.00 | 32 | 1013.1 |
| 20260505215644 | 81 | 67 | 1.7 | 3.5 | 0.00 | 0.00 | 0.00 | 34 | 1013.1 |
| 20260505215142 | 81 | 180 | 0.0 | 3.5 | 0.00 | 0.00 | 0.00 | 33 | 1013.3 |
| 20260505214640 | 81 | 85 | 1.7 | 1.7 | 0.00 | 0.00 | 0.00 | 32 | 1013.0 |
| 20260505214137 | 80 | 109 | 1.7 | 2.6 | 0.00 | 0.00 | 0.00 | 31 | 1013.1 |
| 20260505213634 | 80 | 125 | 0.0 | 4.3 | 0.00 | 0.00 | 0.00 | 33 | 1012.9 |
| 20260505213131 | 80 | 211 | 0.0 | 2.6 | 0.00 | 0.00 | 0.00 | 31 | 1013.3 |
| 20260505212626 | 81 | 142 | 0.9 | 2.6 | 0.00 | 0.00 | 0.00 | 31 | 1012.9 |
| 20260505212125 | 81 | 73 | 1.7 | 3.5 | 0.00 | 0.00 | 0.00 | 32 | 1013.0 |
| 20260505211621 | 81 | 239 | 0.0 | 2.6 | 0.00 | 0.00 | 0.00 | 31 | 1012.9 |
| 20260505211118 | 82 | 266 | 1.7 | 2.6 | 0.00 | 0.00 | 0.00 | 31 | 1013.1 |
| 20260505210615 | 82 | 74 | 1.7 | 2.6 | 0.00 | 0.00 | 0.00 | 30 | 1013.0 |
| 20260505210112 | 82 | 202 | 0.9 | 3.5 | 0.00 | 0.00 | 0.00 | 33 | 1013.1 |
| 20260505205609 | 83 | 158 | 1.7 | 1.7 | 0.00 | 0.00 | 0.00 | 31 | 1012.7 |
| 20260505205107 | 82 | 9 | 0.0 | 2.6 | 0.00 | 0.00 | 0.00 | 30 | 1012.7 |
| 20260505204604 | 82 | 198 | 0.0 | 4.3 | 0.00 | 0.00 | 0.00 | 30 | 1012.9 |
| 20260505204101 | 82 | 78 | 0.0 | 4.3 | 0.00 | 0.00 | 0.00 | 32 | 1012.8 |
| 20260505203558 | 82 | 263 | 0.0 | 2.6 | 0.00 | 0.00 | 0.00 | 31 | 1012.7 |
| 20260505203055 | 82 | 55 | 1.7 | 2.6 | 0.00 | 0.00 | 0.00 | 29 | 1012.7 |
| 20260505202551 | 83 | 69 | 2.6 | 4.3 | 0.00 | 0.00 | 0.00 | 33 | 1012.7 |
| 20260505202047 | 83 | 226 | 0.9 | 2.6 | 0.00 | 0.00 | 0.00 | 30 | 1012.8 |
| 20260505201544 | 84 | 251 | 0.9 | 2.6 | 0.00 | 0.00 | 0.00 | 29 | 1012.9 |
| 20260505201042 | 84 | 155 | 0.9 | 1.7 | 0.00 | 0.00 | 0.00 | 29 | 1012.7 |
| 20260505200539 | 84 | 187 | 0.0 | 1.7 | 0.00 | 0.00 | 0.00 | 29 | 1012.9 |
| 20260505200036 | 84 | 13 | 0.0 | 1.7 | 0.00 | 0.00 | 0.00 | 29 | 1013.0 |
| 20260505195532 | 85 | 133 | 1.7 | 1.7 | 0.00 | 0.00 | 0.00 | 28 | 1013.2 |
| 20260505195030 | 85 | 96 | 0.0 | 3.5 | 0.00 | 0.00 | 0.00 | 28 | 1012.9 |
| 20260505194527 | 85 | 227 | 1.7 | 3.5 | 0.00 | 0.00 | 0.00 | 29 | 1013.2 |
| 20260505194022 | 85 | 83 | 1.7 | 5.2 | 0.00 | 0.00 | 0.00 | 28 | 1013.2 |
| 20260505193520 | 85 | 232 | 1.7 | 3.5 | 0.00 | 0.00 | 0.00 | 29 | 1013.3 |
| 20260505193017 | 85 | 244 | 0.0 | 2.6 | 0.00 | 0.00 | 0.00 | 28 | 1013.2 |
| 20260505192515 | 85 | 167 | 1.7 | 2.6 | 0.00 | 0.00 | 0.00 | 28 | 1013.3 |
| 20260505192012 | 86 | 25 | 0.0 | 2.6 | 0.00 | 0.00 | 0.00 | 29 | 1013.3 |
| 20260505191510 | 86 | 199 | 0.9 | 2.6 | 0.00 | 0.00 | 0.00 | 29 | 1013.5 |
| 20260505191009 | 86 | 152 | 0.0 | 2.6 | 0.00 | 0.00 | 0.00 | 29 | 1013.7 |
| 20260505190503 | 85 | 350 | 1.7 | 3.5 | 0.00 | 0.00 | 0.00 | 29 | 1013.5 |
| 20260505185958 | 85 | 115 | 0.0 | 3.5 | 0.00 | 0.00 | 0.00 | 27 | 1013.6 |
| 20260505185456 | 86 | 5 | 1.7 | 4.3 | 0.00 | 0.00 | 0.00 | 29 | 1013.7 |
| 20260505184952 | 85 | 89 | 0.9 | 2.6 | 0.00 | 0.00 | 0.00 | 28 | 1013.9 |
| 20260505184449 | 85 | 192 | 0.9 | 1.7 | 0.00 | 0.00 | 0.00 | 28 | 1014.1 |
| 20260505183945 | 84 | 186 | 1.7 | 3.5 | 0.00 | 0.00 | 0.00 | 29 | 1013.8 |
| 20260505183442 | 84 | 126 | 2.6 | 4.3 | 0.00 | 0.00 | 0.00 | 30 | 1014.3 |
| 20260505182939 | 83 | 160 | 2.6 | 5.2 | 0.00 | 0.00 | 0.00 | 30 | 1014.1 |
| 20260505182436 | 83 | 264 | 1.7 | 3.5 | 0.00 | 0.00 | 0.00 | 28 | 1014.4 |
| 20260505181932 | 84 | 100 | 0.9 | 3.5 | 0.00 | 0.00 | 0.00 | 28 | 1014.2 |
| 20260505181430 | 84 | 136 | 0.9 | 4.3 | 0.00 | 0.00 | 0.00 | 31 | 1014.5 |
| 20260505180927 | 83 | 272 | 0.0 | 5.2 | 0.00 | 0.00 | 0.00 | 32 | 1014.3 |
| 20260505180423 | 83 | 221 | 0.0 | 5.2 | 0.00 | 0.00 | 0.00 | 31 | 1014.3 |
| 20260505175920 | 83 | 168 | 0.0 | 3.5 | 0.00 | 0.00 | 0.00 | 32 | 1014.6 |
| 20260505175416 | 82 | 104 | 0.0 | 3.5 | 0.00 | 0.00 | 0.00 | 31 | 1014.6 |
| 20260505174912 | 82 | 33 | 0.9 | 3.5 | 0.00 | 0.00 | 0.00 | 31 | 1014.7 |
| 20260505174410 | 82 | 288 | 2.6 | 2.6 | 0.00 | 0.00 | 0.00 | 30 | 1014.9 |
| 20260505173906 | 82 | 195 | 0.0 | 2.6 | 0.00 | 0.00 | 0.00 | 37 | 1014.6 |